OBJECT C

Satellite information

Favourite Embed

Satellite Type and Status

UNKNOWNIN ORBIT

Key statistics

Satellite OBJECT C at a glance.

Uptime

1354

Days in orbit

Revolutions

≈ 15.0

Per day

Orbit

SSO

Sun Synchronous Orbit

Inclination

97.6

Latest

Satellite identification and parameters

Extended collection of information and parameters for OBJECT C.

Object identification

Identified? True

Debris? False

Object name: OBJECT C

International designator: 2022-032C

Object number (NORAD): 52155

Object ID (CCSDS): 52155

Country: PEOPLES REPUBLIC OF CHINA (PRC)

Current information (Y/N): Y

RCS size: MEDIUM

Orbital parameters

Period: 95.957 minutes

Inclination: 97.608 deg

SMA: 6942.961 km

Apoapsis: 580.582 km

Periapsis: 549.07 km

RAAN: 30.5547 deg

Eccentricy: 0.00226932

Argument of periapsis: 69.1232 deg

Mean anomaly: 291.2418 deg

Mean motion: 15.00671584 rev/day

Mean motion (dot): 0.00006266 rev/day2

B* drag term: 0.00049701462 1/REarth

Two-line elements (TLE)

Creation date: Dec. 12, 2025, 10:14 a.m.

Reference frame: TEME

Reference center: EARTH

Epoch: Dec. 12, 2025, 8 a.m. UTC

TLE line 0: 0 OBJECT C

TLE line 1: 1 52155U 22032C 25346.33381418 .00006266 00000-0 49701-3 0 9992

TLE line 2: 2 52155 97.6080 30.5547 0022693 69.1232 291.2418 15.00671584202243

Live tracking on map

Real-time ground track for satellite OBJECT C.

In-orbit conjunctions

There are no conjunctions computed for OBJECT C, at the moment. Check back to stay up to date, as we update our databases every day.

Go to all conjunctions

Associated space launch

The Tianping-2 A/B/C satellites were built by the China Aerospace Science and Industry Corporation (CASIC) and will be used as calibration targets for services such as atmospheric space environment study and orbital prediction model correction.

OBJECT C was lifted into orbit during the mission ‘Long March 11 | Tianping-2 A/B/C’, on board a Long March 11 space rocket.

The launch took place on March 30, 2022, 2:29 a.m. from Launch Area 95A.

For more information about the launch, click the button.

Launch to space Long March 11 | Tianping-2 A/B/C
Long March 11 | Tianping-2 A/B/C

Agency: N/A

Status: Launch Successful

Launch date: March 30, 2022, 2:29 a.m. UTC

Rocket: Long March 11

Launch pad: Launch Area 95A

Location: Jiuquan Satellite Launch Center, People's Republic of China

...

Latest news about this satellite

There are no fresh news available about this satellite. Check back as we update our databases every day.


Newsletter sign-up

Weekly statistics, charts and insights to help you stay on top of the space industry.